Regional Weather Roundup
Issued by NWS Charleston, SC

Current Version | Previous Version | Text Only | Print | Product List | Glossary Off
Versions: 1 2 3 4 5 6 7 8 9 10 11 12 13 14 15 16 17 18 19 20 21 22 23 24 25 26 27 28 29 30 31 32 33 34 35 36 37 38 39 40 41 42 43 44 45 46 47 48 49 50

981
ASUS42 KCHS 202327
RWRCHS

REGIONAL WEATHER ROUNDUP
NATIONAL WEATHER SERVICE CHARLESTON SC
700 PM EDT THU JUL 20 2017

NOTE: "FAIR" INDICATES FEW OR NO CLOUDS BELOW 12,000 FEET WITH NO
SIGNIFICANT WEATHER AND/OR OBSTRUCTIONS TO VISIBILITY.

NOT ALL STATIONS ARE QUALITY CONTROLLED. USE DATA WITH CAUTION...
ESPECIALLY DEWPOINT OBSERVATIONS.

SCZ027-030-031-034>040-042>050-210000-
...SOUTHEAST SOUTH CAROLINA...

CITY           SKY/WX    TMP DP  RH WIND       PRES   REMARKS
N CHARLESTON   MOSUNNY   85  74  69 SW12      30.00S HX  92
WATERFRONT PRK   N/A     85  77  76 S8        29.99S HX  95
JOHNS ISLAND   FAIR      84  77  79 SW12      30.02R HX  94
PINOPOLIS        N/A     88  73  62 S5        29.93R HX  96
MONCKS CORNER  FAIR      84  73  70 S9        30.00S HX  91
SUMMERVILLE    FAIR      84  73  70 S6        30.01S HX  91
BEAUFORT MCAS  PTSUNNY   83  73  72 CALM      30.02S
BEAUFORT ARPT  FAIR      82  72  69 S5        30.01F
HILTON HEAD IS MOSUNNY   86  73  66 SW7       30.03F HX  93
WALTERBORO     PTCLDY    81  72  74 S6        30.02S
ALLENDALE        N/A    N/A N/A N/A MISG        N/A

...SOUTHERN MIDLANDS AND PEE DEE...

CITY           SKY/WX    TMP DP  RH WIND       PRES   REMARKS
GEORGETOWN     FAIR      82  77  83 S8        30.01S HX  91
KINGSTREE      FAIR      90  72  55 CALM      29.98S HX  96
ORANGEBURG     MOSUNNY   87  69  54 CALM      29.99F HX  91
BARNWELL       FAIR      81  77  89 SE6       30.02R
AIKEN          FAIR      82  72  69 SE10      30.04R
MANNING        FAIR      88  70  55 W8        29.99R HX  92
COLUMBIA       MOSUNNY   87  70  56 S3        29.98S HX  92
SUMTER         MOSUNNY   88  69  53 S3        29.96F HX  91
FLORENCE       SUNNY     91  73  55 S6        29.97F HX  99
MYRTLE BEACH   MOSUNNY   86  75  70 S12       30.00S HX  95
N MYRTLE BEACH SUNNY     84  76  76 SW15      29.99S HX  93

$$

GAZ063-065-086>088-099>101-113>116-118-119-134>141-150-210000-
...SOUTHEAST GEORGIA...

CITY           SKY/WX    TMP DP  RH WIND       PRES   REMARKS
SAVANNAH ARPT  PTSUNNY   79  72  79 S7        30.02F
HUNTER AAF     SUNNY     80  72  74 CALM      29.99F
FORT STEWART   MOSUNNY   74  69  85 CALM      30.00F
STATESBORO     PTSUNNY   77  71  81 S3        30.02S
SYLVANIA       CLEAR     82  75  80 CALM      30.03R
CLAXTON        FAIR      75  73  91 CALM      30.01F

...CSRA...CENTRAL AND FAR SOUTHEAST GEORGIA...

CITY           SKY/WX    TMP DP  RH WIND       PRES   REMARKS
THOMSON        SUNNY     91  71  51 N3        30.03S HX  97
AUGUSTA-BUSH   CLOUDY    90  75  61 S7        29.97S HX 100
AUGUSTA-DANIEL PTSUNNY   93  70  46 S15       29.98F HX  99
SWAINSBORO     FAIR      82  72  69 S8        30.01S
VIDALIA        CLOUDY    81  73  78 S5        30.02S
EASTMAN        MOCLDY    92  60  33 S5        30.02S HX  92
HAZLEHURST     FAIR      83  75  79 S10       30.02R HX  90
ALMA           CLOUDY    79  73  82 SE7       30.04R
WAYCROSS       CLOUDY    76  76 100 S7        30.04F
JESUP          NOT AVBL
BAXLEY         FAIR      77  77 100 S7        30.03S
BRUNSWICK      MOSUNNY   79  72  78 CALM      30.04F
SAINT SIMONS   MOSUNNY   84  68  58 CALM      30.04S

$$

SCZ027-028-034-036>038-045-046-048>050-GAZ119-141-210000-
...LAKE AND SUPPLEMENTAL COASTAL OBSERVATIONS...

STATION/POSITION TIME  TEMP    WIND        PRES    WAVE   SWELL
                       AIR SEA DIR/SP/G            HT/PER HT/PER/DIR
                 (UTC) (F)     (DEG/KT/KT) (MB)    (FT/S) (FT/S/D)
WINYAH BAY       2245   84     200/ 11     1016.0S
LAKE MURRAY      2220   90     150/  9/ 10 1013.9F
ACE BASIN NERRS  2245   81     280/  2     1017.0R
FORT PULASKI     2300   83 86  170/  3/  4 1016.7
SAPELO ISLAND    2300   79        CALM     1017.0

$$

ANZ835-935-AMZ111-154-330-350-352-354-370-450-454-472-210000-
...C-MAN AND BUOY OBSERVATIONS...

STATION/POSITION TIME  TEMP    WIND        PRES    WAVE   SWELL
                       AIR SEA DIR/SP/G            HT/PER HT/PER/DIR
                 (UTC) (F)     (DEG/KT/KT) (MB)    (FT/S) (FT/S/D)
BUOY 41004       2310   83 85  200/ 10/ 12 1016.0
BUOY 41008       2250   80 83  290/ 16/ 17 1016.7R   2/ 8   2/100/ 8
FOLLY BEACH CMAN 2300   84     210/ 12/ 14 1017.0R
CAPERS NEARSHORE 2308   82 84  210/ 12/ 16 1015.9R
FRIPP NEARSHORE  2308   84 84  210/ 12/ 16 1016.1S


STATION/POSITION TIME  TEMP    WIND        PRES    WAVE   SWELL
                       AIR SEA DIR/SP/G            HT/PER HT/PER/DIR
                 (UTC) (F)     (DEG/KT/KT) (MB)    (FT/S) (FT/S/D)
5E ST. MARYS GA  2300      84                N/A     2/ 8
FRYING PAN BUOY  2310   83 85  220/ 10/ 12 1015.5
BUOY 41025       2150   83 87  200/  4/  8 1015.7    2/ 8   2/120/ 8
CAPE LOOKOUT NC  2300   82     220/  5/  7 1015.3F
BUOY 41002       2250   81 84  220/  8/ 10 1017.2F   3/ 8   3/ 90/ 8
BUOY 41010       2310   82 85  160/ 10/ 12 1017.1
ST AUGUSTINE FL  2300   82 83  150/ 10/ 11 1017.8R


$$




USA.gov is the U.S. government's official web portal to all federal, state and local government web resources and services.